Location: Cactus School
(34.5700°N, 118.0931°W)
Time: 06:41:21
(UTC-07:00)

Vanguard 1 Rocket - Pass Details

Date: 21 April 2024
Orbit: 650 x 4220 km, 34.3° (Epoch: 22 May)

Event Time Altitude Azimuth Distance (km) Brightness Sun altitude
Rises 22:18:31 0° 279° (W) 3,562 11.2 -30.8°
Reaches altitude 10° 22:20:33 10° 277° (W) 2,840 10.5 -31.1°
Maximum altitude 22:27:25 75° 193° (SSW) 1,572 8.3 -32.0°
Enters shadow 22:28:40 67° 144° (SE) 1,733 8.4 -32.2°
Drops below altitude 10° 22:41:07 10° 112° (ESE) 5,368 - -33.9°
Sets 22:46:33 0° 111° (ESE) 6,953 - -34.6°
